TimeCET,TemperatureF,Dew PointF,Humidity,Sea Level PressureIn,VisibilityMPH,Wind Direction,Wind SpeedMPH,Gust SpeedMPH,PrecipitationIn,Events,Conditions,WindDirDegrees,DateUTC
12:20 AM,32.0,32.0,100,29.80,5.0,West,9.2,-,N/A,,Mostly Cloudy,270,2012-12-05 23:20:00
12:50 AM,32.0,30.2,93,29.80,6.2,West,6.9,-,N/A,,Mostly Cloudy,280,2012-12-05 23:50:00
1:00 AM,33,31,88,29.85,6,West,6.7,,,,Partly Cloudy,280,2012-12-06 00:00:00
1:20 AM,32.0,30.2,93,29.83,6.2,West,9.2,-,N/A,,Mostly Cloudy,280,2012-12-06 00:20:00
1:50 AM,32.0,30.2,93,29.83,6.2,WNW,9.2,-,N/A,,Scattered Clouds,300,2012-12-06 00:50:00
2:20 AM,32.0,30.2,93,29.86,6.2,WNW,6.9,-,N/A,,Scattered Clouds,290,2012-12-06 01:20:00
2:50 AM,32.0,30.2,93,29.86,6.2,WNW,6.9,-,N/A,,Mostly Cloudy,290,2012-12-06 01:50:00
3:20 AM,32.0,30.2,93,29.89,6.2,WNW,5.8,-,N/A,,Mostly Cloudy,290,2012-12-06 02:20:00
3:50 AM,32.0,28.4,87,29.89,6.2,West,6.9,-,N/A,,Scattered Clouds,280,2012-12-06 02:50:00
4:00 AM,31,29,91,29.94,12,West,6.7,,,,Mostly Cloudy,280,2012-12-06 03:00:00
4:20 AM,30.2,28.4,93,29.89,6.2,West,6.9,-,N/A,,Scattered Clouds,280,2012-12-06 03:20:00
4:50 AM,30.2,28.4,93,29.92,6.2,WNW,6.9,-,N/A,,Scattered Clouds,290,2012-12-06 03:50:00
5:20 AM,30.2,28.4,93,29.92,6.2,WNW,6.9,-,N/A,,Partly Cloudy,290,2012-12-06 04:20:00
5:50 AM,30.2,28.4,93,29.95,6.2,West,5.8,-,N/A,,Partly Cloudy,270,2012-12-06 04:50:00
6:20 AM,30.2,26.6,86,29.95,6.2,West,4.6,-,N/A,,Partly Cloudy,260,2012-12-06 05:20:00
6:50 AM,28.4,26.6,93,29.95,-9999.0,WSW,4.6,-,N/A,,Clear,250,2012-12-06 05:50:00
7:00 AM,29,26,86,30.00,12,WSW,4.5,,,,Partly Cloudy,250,2012-12-06 06:00:00
7:20 AM,30.2,26.6,86,29.98,-9999.0,WSW,8.1,-,N/A,,Clear,250,2012-12-06 06:20:00
7:50 AM,28.4,26.6,93,29.98,-9999.0,WSW,9.2,-,N/A,,Clear,250,2012-12-06 06:50:00
8:20 AM,30.2,26.6,86,29.98,-9999.0,WSW,10.4,-,N/A,,Clear,240,2012-12-06 07:20:00
8:50 AM,30.2,26.6,86,29.98,-9999.0,WSW,10.4,-,N/A,,Clear,240,2012-12-06 07:50:00
9:20 AM,30.2,28.4,93,30.01,6.2,WSW,9.2,-,N/A,,Mostly Cloudy,250,2012-12-06 08:20:00
9:50 AM,30.2,28.4,93,30.01,1.7,West,8.1,-,N/A,Snow,Light Snow,260,2012-12-06 08:50:00
10:00 AM,31,29,87,30.06,2,West,6.7,,,Snow,Light Snow,260,2012-12-06 09:00:00
10:20 AM,32.0,28.4,87,30.04,5.0,West,8.1,-,N/A,,Mostly Cloudy,260,2012-12-06 09:20:00
10:50 AM,32.0,30.2,93,30.04,6.2,WSW,8.1,-,N/A,,Mostly Cloudy,250,2012-12-06 09:50:00
11:20 AM,32.0,28.4,87,30.04,5.0,WSW,9.2,-,N/A,Rain,Light Rain,250,2012-12-06 10:20:00
11:50 AM,32.0,28.4,87,30.04,5.0,West,9.2,-,N/A,Rain,Light Rain,260,2012-12-06 10:50:00
12:20 PM,32.0,28.4,87,30.04,5.6,West,9.2,-,N/A,,Scattered Clouds,260,2012-12-06 11:20:00
12:50 PM,32.0,28.4,87,30.04,3.1,WSW,9.2,-,N/A,Snow,Light Snow Showers,250,2012-12-06 11:50:00
1:00 PM,32,29,86,30.09,2,WSW,8.9,,,Snow,Light Snow,250,2012-12-06 12:00:00
1:20 PM,32.0,30.2,93,30.04,3.1,West,8.1,-,N/A,Snow,Light Snow Showers,260,2012-12-06 12:20:00
1:50 PM,33.8,30.2,87,30.04,3.1,WSW,9.2,-,N/A,Snow,Light Snow Showers,240,2012-12-06 12:50:00
2:20 PM,33.8,30.2,87,30.04,6.2,WSW,9.2,-,N/A,,Mostly Cloudy,240,2012-12-06 13:20:00
2:50 PM,33.8,30.2,87,30.04,6.2,WSW,9.2,-,N/A,,Mostly Cloudy,240,2012-12-06 13:50:00
3:20 PM,35.6,30.2,81,30.04,-9999.0,SW,9.2,-,N/A,,Clear,230,2012-12-06 14:20:00
3:50 PM,35.6,30.2,81,30.04,-9999.0,SW,8.1,-,N/A,,Clear,220,2012-12-06 14:50:00
4:00 PM,35,30,75,30.07,7,SW,8.9,,,,Scattered Clouds,220,2012-12-06 15:00:00
4:20 PM,33.8,28.4,81,30.04,-9999.0,SW,11.5,-,N/A,,Clear,230,2012-12-06 15:20:00
4:50 PM,33.8,28.4,81,30.01,-9999.0,SSW,8.1,-,N/A,,Clear,210,2012-12-06 15:50:00
5:20 PM,33.8,28.4,81,30.01,-9999.0,SSW,9.2,-,N/A,,Clear,210,2012-12-06 16:20:00
6:50 PM,32.0,28.4,87,30.01,-9999.0,SSW,9.2,-,N/A,,Clear,200,2012-12-06 17:50:00
7:00 PM,32,28,80,30.04,9,SSW,8.9,,,,Clear,200,2012-12-06 18:00:00
7:20 PM,32.0,26.6,80,29.98,-9999.0,SSW,10.4,-,N/A,,Clear,200,2012-12-06 18:20:00
7:50 PM,32.0,26.6,80,29.98,-9999.0,SSW,11.5,-,N/A,,Clear,200,2012-12-06 18:50:00
8:20 PM,32.0,26.6,80,29.95,-9999.0,SSW,12.7,-,N/A,,Clear,200,2012-12-06 19:20:00
8:50 PM,32.0,26.6,80,29.95,-9999.0,South,13.8,-,N/A,,Clear,190,2012-12-06 19:50:00
9:20 PM,32.0,26.6,80,29.92,-9999.0,South,11.5,-,N/A,,Clear,190,2012-12-06 20:20:00
9:50 PM,32.0,26.6,80,29.89,-9999.0,South,13.8,-,N/A,,Clear,190,2012-12-06 20:50:00
10:00 PM,32,27,73,29.95,9,South,13.4,,,,Clear,190,2012-12-06 21:00:00
10:20 PM,32.0,26.6,80,29.89,-9999.0,South,12.7,-,N/A,,Clear,190,2012-12-06 21:20:00
10:50 PM,32.0,26.6,80,29.89,-9999.0,South,12.7,-,N/A,,Clear,190,2012-12-06 21:50:00
11:50 PM,33.8,26.6,75,29.83,6.2,SSW,17.3,-,N/A,,Scattered Clouds,200,2012-12-06 22:50:00